Regional Weather Roundup
Issued by NWS

Home | Current Version | Previous Version | Text Only | Print | Product List | Glossary Off
Versions: 1 2 3 4 5 6 7 8 9 10 11 12 13 14 15 16 17 18 19 20 21 22 23 24 25 26 27 28 29 30 31 32 33 34 35 36 37 38 39 40 41 42 43 44 45 46 47 48 49 50

000
ASUS43 KLSX 280107
RWRMO

WEATHER SUMMARY FOR MISSOURI
NATIONAL WEATHER SERVICE SPRINGFIELD MO
800 PM CDT MON MAR 27 2017

NOTE: "FAIR" INDICATES FEW OR NO CLOUDS BELOW 12,000 FEET WITH NO
       SIGNIFICANT WEATHER AND/OR OBSTRUCTIONS TO VISIBILITY.
       CURRENT SKY AND/OR WEATHER CONDITIONS ARE NOT AVAILABLE FOR
       CHILLICOTHE AND FARMINGTON.

MOZ001>031-035>038-043-044-053-054-280200-
...NORTHERN AND WESTERN MISSOURI...

CITY           SKY/WX    TMP DP  RH WIND       PRES   REMARKS
KANSAS CTY INT CLOUDY    51  46  83 NE6       29.95R
KANSAS C DTWN  CLOUDY    53  45  74 N8        29.94R
LEE`S SUMMIT   CLOUDY    51  47  86 N7        29.95R
ST JOSEPH      CLOUDY    51  45  79 N8        29.96R
CHILLICOTHE      N/A     51  47  86 CALM      29.96R
KIRKSVILLE     CLOUDY    50  47  89 N8        29.95R

$$
MOZ066>068-077>081-088>096-101>105-280200-
...SOUTHWEST MISSOURI...

CITY           SKY/WX    TMP DP  RH WIND       PRES   REMARKS
SPRINGFIELD    CLOUDY    52  49  89 NW7       29.93R
JOPLIN         CLOUDY    52  50  93 CALM      29.95R
BRANSON        MOCLDY    55  50  82 NW9       29.92R

$$
MOZ032>034-039>042-045>050-055>058-069>072-280200-
...CENTRAL MISSOURI...

CITY           SKY/WX    TMP DP  RH WIND       PRES   REMARKS
COLUMBIA       LGT RAIN  54  54 100 N7        29.91R FOG
JEFFERSON CITY CLOUDY    56  53  90 W5        29.91R
ROLLA          CLOUDY    54  53  97 NW7       29.89R FOG
SEDALIA        CLOUDY    52  49  89 N9        29.95R
WHITEMAN AFB   CLOUDY    51  51 100 N6        29.94R
WARRENSBURG    CLOUDY    50  46  87 N3        29.95R
OSAGE BEACH    CLOUDY   N/A N/A N/A NW3       29.93R

$$
MOZ051-052-059>065-280200-
...EAST CENTRAL MISSOURI...

CITY           SKY/WX    TMP DP  RH WIND       PRES   REMARKS
ST LOUIS INTL  CLOUDY    57  53  86 NW7       29.89R
SPIRIT OF STL  CLOUDY    57  55  93 W3        29.89R
ST CHARLES     CLOUDY    57  54  89 NW8       29.88R

$$
MOZ072>076-082>087-097>100-106>115-280200-
...SOUTH CENTRAL AND SOUTHEAST MISSOURI...

CITY           SKY/WX    TMP DP  RH WIND       PRES   REMARKS
CAPE GIRARDEAU PTCLDY    58  55  90 N5        29.84R
FARMINGTON     CLOUDY    57  53  86 N8        29.88R
POPLAR BLUFF   CLEAR     63  56  78 CALM      29.84R
WEST PLAINS    PTCLDY    60  51  72 NW10      29.89R

$$



USA.gov is the U.S. government's official web portal to all federal, state and local government web resources and services.